Facebook Twitter

Wetterstation Parma

aktuelles Wetter
  Temperatur Wetter Niederschlag Luftdruck Wind
Fr, 12:50 Uhr 29° - - 1011 hPa 27 km/h NW
Fr, 11:50 Uhr 27° - - 1012 hPa 23 km/h NW
Fr, 10:50 Uhr 28° - - 1011 hPa 19 km/h NW
Fr, 09:50 Uhr 28° - - 1011 hPa 5 km/h NW
Fr, 08:50 Uhr 27° - - 1012 hPa 5 km/h W
Fr, 07:50 Uhr 25° - - 1011 hPa 8 km/h SW
Fr, 06:58 Uhr 23° - - 1011 hPa 8 km/h S
Do, 22:50 Uhr 27° - - 1012 hPa 14 km/h SW
Do, 21:50 Uhr 29° - - 1012 hPa 16 km/h SW
Do, 20:50 Uhr 30° - - 1012 hPa 14 km/h SW
Do, 19:50 Uhr 31° - - 1012 hPa 16 km/h SW
Do, 18:50 Uhr 33° - - 1012 hPa 13 km/h SW
Do, 17:50 Uhr 35° - - 1012 hPa 3 km/h
Do, 16:50 Uhr 35° - - 1013 hPa 3 km/h
Do, 15:50 Uhr 34° - - 1013 hPa 5 km/h
Do, 14:50 Uhr 33° - - 1014 hPa 5 km/h N
Do, 13:50 Uhr 33° - - 1014 hPa 5 km/h N
Do, 12:50 Uhr 32° - - 1015 hPa 3 km/h
Do, 11:50 Uhr 32° - - 1015 hPa 2 km/h
Do, 10:50 Uhr 30° - - 1015 hPa 3 km/h

Alle Zeitangaben MESZ